Flag for Greece Weather past 2 weeks in Iráklion, Crete, Greece

72 °F

Passing clouds.

Feels Like: 75 °F
Forecast: 66 / 78 °F
Wind: 13 mph from Northwest

Location: Heraklion Airport

Current Time: Oct 4, 2015 at 10:41:35 PM

Latest Report: Oct 4, 2015 at 9:50 PM

Visibility: N/A

Pressure: 30.12 "Hg

Humidity: 69%

Dew point: 61 °F

Location of IráklionLocation

Historic Weather in Iráklion — Graph


Iráklion temperature yesterday

Maximum temperature yesterday: 75 °F (at 1:50 PM)
Minimum temperature yesterday: 68 °F (at 5:50 AM)
Average temperature yesterday: 72 °F

Past Weeks' High & Low Weather Summary

High86 °F (Sep 21, 10:50 AM)94% (Sep 19, 10:50 PM)30.21 "Hg (Sep 19, 10:50 PM)
Low66 °F (Sep 27, 7:20 AM)46% (Sep 21, 10:50 AM)29.62 "Hg (Sep 22, 4:50 AM)
Average74 °F73%29.95 "Hg
* Reported Sep 19 9:50 PM — Oct 4 9:20 PM, Iráklion, Weather by CustomWeather, © 2015

Note: Actual official high and low records may vary slightly from our data, if they occured in-between our weather recording intervals... More about our weather records


Iráklion weather history for previous 24 hours

Time TempWeatherWind HumidityBarometerVisibility
9:20 PM
Sun, Oct 4
72 °FPassing clouds.13 mph69%30.12 "HgN/A
8:50 PM72 °FPassing clouds.16 mph69%30.12 "HgN/A
8:20 PM72 °FPassing clouds.16 mph65%30.12 "HgN/A
7:50 PM72 °FScattered clouds.15 mph65%30.12 "HgN/A
7:20 PM72 °FScattered clouds.15 mph69%30.12 "HgN/A
6:50 PM72 °FScattered clouds.16 mph69%30.12 "HgN/A
6:20 PM73 °FScattered clouds.15 mph65%30.12 "HgN/A
5:50 PM73 °FScattered clouds.15 mph65%30.12 "HgN/A
5:20 PM75 °FScattered clouds.15 mph61%30.15 "HgN/A
4:50 PM75 °FScattered clouds.15 mph61%30.15 "HgN/A
4:20 PM75 °FScattered clouds.16 mph61%30.15 "HgN/A
3:50 PM75 °FScattered clouds.15 mph61%30.15 "HgN/A
3:20 PM75 °FScattered clouds.15 mph61%30.15 "HgN/A
2:50 PM75 °FScattered clouds.15 mph61%30.15 "HgN/A
2:20 PM75 °FScattered clouds.16 mph57%30.18 "HgN/A
1:50 PM75 °FScattered clouds.16 mph57%30.18 "HgN/A
1:20 PM75 °FScattered clouds.15 mph57%30.18 "HgN/A
12:50 PM75 °FScattered clouds.14 mph57%30.18 "HgN/A
12:20 PM75 °FScattered clouds.13 mph54%30.21 "HgN/A
11:50 AM75 °FScattered clouds.15 mph54%30.21 "HgN/A
11:20 AM75 °FScattered clouds.14 mph57%30.21 "HgN/A
10:50 AM73 °FScattered clouds.14 mph57%30.21 "HgN/A
10:20 AM72 °FPartly sunny.14 mph65%30.21 "HgN/A
9:50 AM72 °FPartly sunny.14 mph65%30.21 "HgN/A
9:20 AM72 °FPartly sunny.13 mph61%30.18 "HgN/A
8:50 AM72 °FScattered clouds.12 mph61%30.18 "HgN/A
8:20 AM70 °FScattered clouds.12 mph69%30.18 "HgN/A
7:50 AM70 °FPassing clouds.12 mph69%30.18 "HgN/A
7:20 AM70 °FPassing clouds.13 mph69%30.18 "HgN/A
6:50 AM70 °FPassing clouds.13 mph69%30.18 "HgN/A
6:20 AM70 °FPassing clouds.13 mph73%30.18 "HgN/A
5:50 AM70 °FPassing clouds.14 mph73%30.18 "HgN/A
5:20 AM70 °FPassing clouds.14 mph73%30.18 "HgN/A
4:50 AM70 °FPassing clouds.14 mph73%30.18 "HgN/A
4:20 AM70 °FPassing clouds.14 mph73%30.18 "HgN/A
3:50 AM70 °FPassing clouds.14 mph73%30.18 "HgN/A
3:20 AM70 °FPassing clouds.13 mph73%30.21 "HgN/A
2:50 AM70 °FPassing clouds.3 mph73%30.21 "HgN/A
2:20 AM70 °FPassing clouds.3 mph73%30.21 "HgN/A
1:50 AM70 °FPassing clouds.3 mph73%30.21 "HgN/A
1:20 AM70 °FPassing clouds.5 mph73%30.21 "HgN/A
12:50 AM70 °FPassing clouds.5 mph73%30.21 "HgN/A
12:20 AM70 °FPassing clouds.5 mph73%30.21 "HgN/A
11:50 PM
Sat, Oct 3
70 °FPassing clouds.9 mph73%30.21 "HgN/A
11:20 PM72 °FPassing clouds.10 mph65%30.21 "HgN/A
10:50 PM72 °FPassing clouds.10 mph65%30.21 "HgN/A
10:20 PM72 °FPassing clouds.10 mph65%30.21 "HgN/A
Weather by CustomWeather, © 2015

See weather overviewHow to use our weather pages